Вернуться в каталог

FENGYUN 1C DEB

LostPO
NORAD 36149·DEBRIS·🇨🇳 China

Запущен May 10, 1999 с Taiyuan Satellite Launch Center

Loading…

Ближайшие Пролёты (ближайшие 24 часа)

TLE

УстаревшееSource: Space-Track

Эпоха: Oct 21, 2022, 14:33 UTC

1 36149U 99025DRW 22294.60669779  .00002992  00000-0  13814-2 0  9998
2 36149  99.6041  68.8320 0029802  79.4924 280.9606 14.21586769742538

Отслеживайте FENGYUN 1C DEB в реальном времени с AllMySat

Download on the App Store